TK5EP-13 Weather Reports


time (UTC)temp
C
wind
direction
speed
KPH
gust
KPH
rain 1hr
cm
rain 24hr
cm
rain mn
cm
humidity
%
barometer
mb
20260505100739 15 178 12.9 33.8 0.00 0.00 0.00 97
20260505100238 14 182 14.5 32.2 0.00 0.00 0.00 97
20260505095737 13 188 19.3 30.6 0.00 0.00 0.00 97
20260505095236 13 182 16.1 37.0 0.00 0.00 0.00 97
20260505094735 13 188 25.7 37.0 0.00 0.00 0.00 97
20260505094234 13 183 17.7 35.4 0.00 0.00 0.00 97
20260505093733 13 178 19.3 35.4 0.00 0.00 0.00 97
20260505093233 13 191 29.0 35.4 0.00 0.00 0.00 97
20260505092729 13 206 24.1 46.7 0.00 0.00 0.00 97
20260505092228 13 194 29.0 46.7 0.00 0.00 0.00 97
20260505091725 13 192 25.7 38.6 0.00 0.00 0.00 97
20260505091224 12 221 20.9 38.6 0.00 0.00 0.00 97
20260505090723 12 199 25.7 38.6 0.00 0.00 0.00 97
20260505090222 12 212 27.4 43.5 0.00 0.00 0.00 97
20260505085721 12 210 22.5 43.5 0.00 0.00 0.00 97
20260505085220 13 190 20.9 35.4 0.00 0.00 0.00 97
20260505084719 12 186 24.1 45.1 0.00 0.00 0.00 97
20260505084218 12 212 30.6 45.1 0.00 0.00 0.00 97
20260505083715 12 213 29.0 40.2 0.00 0.00 0.00 97
20260505083214 13 202 25.7 35.4 0.00 0.00 0.00 97
20260505082713 12 186 25.7 37.0 0.00 0.00 0.00 97
20260505082212 12 188 22.5 37.0 0.00 0.00 0.00 97
20260505081711 12 197 25.7 40.2 0.00 0.00 0.00 97
20260505081210 12 203 25.7 40.2 0.00 0.00 0.00 97
20260505080709 12 205 29.0 37.0 0.00 0.00 0.00 97
20260505080209 12 188 25.7 38.6 0.00 0.00 0.00 97
20260505075705 12 189 30.6 38.6 0.00 0.00 0.00 97
20260505075204 12 193 29.0 37.0 0.00 0.00 0.00 97
20260505074703 12 194 25.7 35.4 0.00 0.00 0.00 97
20260505074202 12 190 27.4 35.4 0.00 0.00 0.00 97
20260505073659 12 204 29.0 35.4 0.00 0.00 0.00 97
20260505073158 12 197 24.1 35.4 0.00 0.00 0.00 97
20260505072657 12 207 24.1 37.0 0.00 0.00 0.00 97
20260505072156 12 215 25.7 37.0 0.00 0.00 0.00 97
20260505071655 12 214 27.4 40.2 0.00 0.00 0.00 97
20260505071154 12 199 27.4 40.2 0.00 0.00 0.00 97
20260505070651 12 184 27.4 38.6 0.00 0.00 0.00 97
20260505070150 12 186 24.1 37.0 0.00 0.00 0.00 97
20260505065649 12 214 22.5 33.8 0.00 0.00 0.00 97
20260505065148 12 207 24.1 35.4 0.00 0.00 0.00 97
20260505064645 12 193 25.7 41.8 0.00 0.00 0.00 97
20260505064144 12 192 27.4 41.8 0.00 0.00 0.00 97
20260505063643 12 188 27.4 37.0 0.00 0.00 0.00 97
20260505063142 12 197 29.0 35.4 0.00 0.00 0.00 97
20260505062641 12 205 27.4 37.0 0.00 0.00 0.00 97
20260505062138 12 186 29.0 37.0 0.00 0.00 0.00 97
20260505061637 12 196 29.0 37.0 0.00 0.00 0.00 97
20260505061135 12 196 27.4 37.0 0.00 0.00 0.00 97
20260505060634 12 203 30.6 37.0 0.00 0.00 0.00 97
20260505060133 12 197 27.4 37.0 0.00 0.00 0.00 97
20260505055632 12 199 25.7 37.0 0.00 0.00 0.00 97
20260505055131 12 196 29.0 37.0 0.00 0.00 0.00 97
20260505054631 12 197 27.4 38.6 0.00 0.00 0.00 97
20260505054130 12 205 29.0 38.6 0.00 0.00 0.00 97
20260505053629 12 210 30.6 38.6 0.00 0.00 0.00 97
20260505053128 12 212 30.6 40.2 0.00 0.00 0.00 97
20260505052627 12 200 29.0 40.2 0.00 0.00 0.00 97
20260505052126 12 195 30.6 43.5 0.00 0.00 0.00 97
20260505051625 12 220 29.0 43.5 0.00 0.00 0.00 97
20260505051124 12 201 29.0 43.5 0.00 0.00 0.00 97
20260505050624 12 193 32.2 41.8 0.00 0.00 0.00 97
20260505050123 12 199 30.6 46.7 0.00 0.00 0.00 97
20260505041613 12 194 37.0 49.9 0.00 0.00 0.00 96
20260505041112 12 200 32.2 49.9 0.00 0.00 0.00 96
20260505040611 12 189 37.0 48.3 0.00 0.00 0.00 96
20260505040110 12 194 33.8 51.5 0.00 0.00 0.00 96
20260505035609 12 192 33.8 49.9 0.00 0.00 0.00 96
20260505035108 12 187 33.8 48.3 0.00 0.00 0.00 96
20260505034607 12 201 33.8 48.3 0.00 0.00 0.00 96
20260505034107 12 197 30.6 46.7 0.00 0.00 0.00 96
20260505033606 12 188 29.0 48.3 0.00 0.00 0.00 96
20260505033105 12 189 33.8 48.3 0.00 0.00 0.00 96
20260505032604 12 188 30.6 43.5 0.00 0.00 0.00 95
20260505032103 12 188 22.5 43.5 0.00 0.00 0.00 95
20260505031559 12 195 27.4 45.1 0.00 0.00 0.00 95
20260505031058 12 186 29.0 45.1 0.00 0.00 0.00 95
20260505030555 12 186 24.1 38.6 0.00 0.00 0.00 95
20260505030054 12 184 25.7 40.2 0.00 0.00 0.00 95
20260505025553 12 185 20.9 40.2 0.00 0.00 0.00 95
20260505025050 12 184 24.1 35.4 0.00 0.00 0.00 95
20260505024546 12 180 20.9 35.4 0.00 0.00 0.00 95
20260505024045 12 178 22.5 35.4 0.00 0.00 0.00 95
20260505023544 12 175 19.3 37.0 0.00 0.00 0.00 95
20260505023044 12 173 19.3 35.4 0.00 0.00 0.00 95
20260505022543 12 166 22.5 35.4 0.00 0.00 0.00 95
20260505022042 12 171 20.9 37.0 0.00 0.00 0.00 95
20260505021541 12 175 24.1 37.0 0.00 0.00 0.00 95
20260505021040 12 174 25.7 37.0 0.00 0.00 0.00 95
20260505020539 12 177 24.1 37.0 0.00 0.00 0.00 95
20260505020039 12 173 27.4 37.0 0.00 0.00 0.00 95
20260505015535 12 173 24.1 41.8 0.00 0.00 0.00 94
20260505015031 12 181 24.1 41.8 0.00 0.00 0.00 95
20260505014530 12 178 25.7 40.2 0.00 0.00 0.00 95
20260505014029 12 174 27.4 38.6 0.00 0.00 0.00 94
20260505013526 12 176 25.7 37.0 0.00 0.00 0.00 94
20260505013025 12 165 25.7 37.0 0.00 0.00 0.00 94
20260505012524 12 169 24.1 35.4 0.00 0.00 0.00 94
20260505012023 12 149 19.3 37.0 0.00 0.00 0.00 94
20260505011522 12 152 24.1 37.0 0.00 0.00 0.00 94
20260505011021 12 168 24.1 38.6 0.00 0.00 0.00 94
20260505010520 12 172 22.5 40.2 0.00 0.00 0.00 94
20260505010019 12 172 22.5 41.8 0.00 0.00 0.00 94
20260505005518 12 174 27.4 41.8 0.00 0.00 0.00 94
20260505005017 12 182 32.2 45.1 0.00 0.00 0.00 94
20260505004516 12 178 32.2 45.1 0.00 0.00 0.00 94
20260505004015 12 177 27.4 45.1 0.00 0.00 0.00 94
20260505003514 12 171 29.0 43.5 0.00 0.00 0.00 94
20260505003013 12 171 29.0 43.5 0.00 0.00 0.00 94
20260505002513 12 174 27.4 43.5 0.00 0.00 0.00 94
20260505002009 12 175 24.1 43.5 0.00 0.00 0.00 93
20260505001508 12 172 22.5 38.6 0.00 0.00 0.00 93
20260505001008 12 174 24.1 38.6 0.00 0.00 0.00 93
20260505000507 12 179 29.0 41.8 0.00 0.00 0.00 93
20260505000006 12 177 24.1 43.5 0.00 0.00 0.00 93
20260504235505 12 170 27.4 49.9 0.00 0.00 0.00 93
20260504235004 12 163 33.8 49.9 0.00 0.00 0.00 93
20260504234504 12 166 30.6 49.9 0.00 0.00 0.00 93
20260504234003 12 166 27.4 41.8 0.00 0.00 0.00 93
20260504233502 12 169 30.6 46.7 0.00 0.00 0.00 93
20260504233001 12 161 33.8 46.7 0.00 0.00 0.00 93
20260504232500 12 152 30.6 45.1 0.00 0.00 0.00 93
20260504231959 12 174 22.5 51.5 0.00 0.00 0.00 92
20260504231459 12 164 29.0 45.1 0.00 0.00 0.00 92
20260504230958 12 157 33.8 46.7 0.00 0.00 0.00 92
20260504230457 12 164 30.6 46.7 0.00 0.00 0.00 92
20260504225956 12 164 27.4 43.5 0.00 0.00 0.00 92
20260504225455 12 151 25.7 45.1 0.00 0.00 0.00 92
20260504224954 12 158 30.6 45.1 0.00 0.00 0.00 92
20260504224453 12 158 29.0 40.2 0.00 0.00 0.00 91
20260504223953 12 158 30.6 48.3 0.00 0.00 0.00 91
20260504223449 12 151 29.0 48.3 0.00 0.00 0.00 91
20260504222948 12 159 29.0 48.3 0.00 0.00 0.00 91
20260504222445 12 151 29.0 49.9 0.00 0.00 0.00 91
20260504221944 12 147 25.7 49.9 0.00 0.00 0.00 90
20260504221443 12 146 25.7 46.7 0.00 0.00 0.00 90
20260504220942 12 147 29.0 46.7 0.00 0.00 0.00 90
20260504220442 12 127 20.9 41.8 0.00 0.00 0.00 90
20260504215941 12 149 24.1 41.8 0.00 0.00 0.00 90
20260504215440 12 134 19.3 35.4 0.00 0.00 0.00 90
20260504214939 12 133 16.1 35.4 0.00 0.00 0.00 91
20260504214438 12 109 16.1 32.2 0.00 0.00 0.00 91
20260504213937 12 96 12.9 35.4 0.00 0.00 0.00 91
20260504213436 12 105 12.9 35.4 0.00 0.00 0.00 91
20260504212936 12 84 11.3 32.2 0.00 0.00 0.00 91
20260504212435 12 90 12.9 32.2 0.00 0.00 0.00 91
20260504211934 12 94 11.3 29.0 0.00 0.00 0.00 91
20260504211433 12 96 12.9 32.2 0.00 0.00 0.00 91
20260504210930 12 97 14.5 32.2 0.00 0.00 0.00 92
20260504210429 12 97 14.5 30.6 0.00 0.00 0.00 92
20260504205928 12 92 16.1 30.6 0.00 0.00 0.00 92
20260504205427 12 92 17.7 30.6 0.00 0.00 0.00 92
20260504204926 12 89 16.1 32.2 0.00 0.00 0.00 92
20260504204425 12 88 17.7 32.2 0.00 0.00 0.00 92
20260504203924 12 97 16.1 35.4 0.00 0.00 0.00 92
20260504203424 12 99 14.5 35.4 0.00 0.00 0.00 92
20260504202923 11 98 14.5 33.8 0.00 0.00 0.00 92
20260504202422 11 88 17.7 29.0 0.00 0.00 0.00 91
20260504201921 11 90 16.1 30.6 0.00 0.00 0.00 91
20260504201420 11 94 16.1 25.7 0.00 0.00 0.00 91
20260504200919 12 95 16.1 30.6 0.00 0.00 0.00 91
20260504200418 11 94 16.1 30.6 0.00 0.00 0.00 91
20260504195917 12 87 16.1 27.4 0.00 0.00 0.00 91
20260504195416 11 88 14.5 29.0 0.00 0.00 0.00 90
20260504194915 11 90 16.1 29.0 0.00 0.00 0.00 90
20260504194415 11 85 16.1 27.4 0.00 0.00 0.00 90
20260504193914 11 81 14.5 24.1 0.00 0.00 0.00 89
20260504193413 11 85 12.9 22.5 0.00 0.00 0.00 88
20260504192912 11 83 12.9 22.5 0.00 0.00 0.00 88
20260504192411 11 96 12.9 22.5 0.00 0.00 0.00 87
20260504191910 11 102 12.9 22.5 0.00 0.00 0.00 86
20260504191409 11 107 11.3 24.1 0.00 0.00 0.00 86
20260504190909 11 119 14.5 32.2 0.00 0.00 0.00 85
20260504190405 11 144 19.3 32.2 0.00 0.00 0.00 85
20260504185904 11 146 19.3 30.6 0.00 0.00 0.00 84
20260504185403 12 154 22.5 30.6 0.00 0.00 0.00 83
20260504184903 12 149 20.9 30.6 0.00 0.00 0.00 81
20260504184402 12 131 14.5 27.4 0.00 0.00 0.00 79
20260504183901 12 136 14.5 29.0 0.00 0.00 0.00 79
20260504183400 12 119 14.5 25.7 0.00 0.00 0.00 80
20260504182900 12 120 12.9 24.1 0.00 0.00 0.00 80
20260504182359 12 114 8.0 20.9 0.00 0.00 0.00 80
20260504181858 12 115 11.3 24.1 0.00 0.00 0.00 80
20260504181357 12 94 6.4 24.1 0.00 0.00 0.00 79
20260504180856 12 96 9.7 20.9 0.00 0.00 0.00 79
20260504180355 12 98 11.3 20.9 0.00 0.00 0.00 78
20260504175852 13 97 11.3 17.7 0.00 0.00 0.00 77
20260504175350 13 109 8.0 16.1 0.00 0.00 0.00 76
20260504174849 13 100 6.4 20.9 0.00 0.00 0.00 76
20260504174348 13 91 11.3 20.9 0.00 0.00 0.00 77
20260504173847 12 96 11.3 22.5 0.00 0.00 0.00 77
20260504173344 12 90 11.3 25.7 0.00 0.00 0.00 77
20260504172843 12 88 16.1 25.7 0.00 0.00 0.00 77
20260504172342 12 76 16.1 22.5 0.00 0.00 0.00 77
20260504171841 12 86 9.7 12.9 0.00 0.00 0.00 77
20260504171341 12 87 8.0 16.1 0.00 0.00 0.00 76
20260504170840 12 90 9.7 20.9 0.00 0.00 0.00 76
20260504170338 13 87 11.3 22.5 0.00 0.00 0.00 76
20260504160324 13 84 8.0 16.1 0.00 0.00 0.00 71
20260504150814 15 8 1.6 9.7 0.00 0.00 0.00 71
20260504150313 15 151 3.2 11.3 0.00 0.00 0.00 70
20260504141302 15 156 9.7 14.5 0.00 0.00 0.00 63
20260504140801 15 178 8.0 12.9 0.00 0.00 0.00 62
20260504140300 15 161 6.4 14.5 0.00 0.00 0.00 61
20260504130748 15 190 14.5 20.9 0.00 0.00 0.00 63
20260504130248 15 208 11.3 19.3 0.00 0.00 0.00 63
20260504120236 18 215 11.3 20.9 0.00 0.00 0.00 55
20260504110222 20 239 4.8 25.7 0.00 0.00 0.00 51